User: anonymous   Login
Location: NJAA Observatory
(40.6819°N, 74.8979°W)
Time: 15:49:34
(UTC-04:00)
Language:

Cosmos 2082 - Orbit

View from above orbital plane
View from above orbital plane
View from above satellite
View from above satellite

Ground track
Ground track

The orbit data is extracted from the following two-line orbital elements,

1 20624U 90046A   18173.96679655 -.00000156 +00000-0 -56816-4 0  9990
2 20624 071.0398 158.5010 0015104 191.4909 168.5871 14.14253566449390
Epoch (UTC): 22 June 2018 23:12:11
Eccentricity: 0.0015104
inclination: 71.0398°
perigee height: 834 km
apogee height: 856 km
right ascension of ascending node: 158.5010°
argument of perigee: 191.4909°
revolutions per day: 14.14253566
mean anomaly at epoch: 168.5871°
orbit number at epoch: 44939

The dashed part of the orbit path shows where the satellite is in the earth's shadow,  

DLR